This is the latest recevied weather packets stored in our database for station/object K2RMB. If no packets are shown the sender has not sent any weather packets the latest 10 day(s).
| Time | Temp. | Humidity | Pressure | Rain* | Wind** | Luminosity | Snow |
|---|---|---|---|---|---|---|---|
| 1777396296 | 20.56° C | 34% | 1020.2 hPa | 0 mm | - | 730 W/m² | - |
| 1777395993 | 20.56° C | 35% | 1020.2 hPa | 0 mm | - | 785 W/m² | - |
| 1777395692 | 21.11° C | 33% | 1020.2 hPa | 0 mm | - | 847 W/m² | - |
| 1777395389 | 20.56° C | 35% | 1020.2 hPa | 0 mm | - | 767 W/m² | - |
| 1777395087 | 21.11° C | 33% | 1020.6 hPa | 0 mm | - | 892 W/m² | - |
| 1777394784 | 20.56° C | 34% | 1020.6 hPa | 0 mm | - | 882 W/m² | - |
| 1777394480 | 20.56° C | 34% | 1020.6 hPa | 0 mm | - | 881 W/m² | - |
| 1777394176 | 20.56° C | 37% | 1020.6 hPa | 0 mm | - | 882 W/m² | - |
| 1777393872 | 20.56° C | 39% | 1020.6 hPa | 0 mm | - | 775 W/m² | - |
| 1777393571 | 20.56° C | 35% | 1020.6 hPa | 0 mm | - | 817 W/m² | - |
| 1777393266 | 20.56° C | 37% | 1020.6 hPa | 0 mm | - | 848 W/m² | - |
| 1777392964 | 20° C | 35% | 1020.6 hPa | 0 mm | - | 833 W/m² | - |
| 1777392659 | 20° C | 36% | 1020.6 hPa | 0 mm | - | 847 W/m² | - |
| 1777392355 | 20.56° C | 36% | 1020.6 hPa | 0 mm | - | 827 W/m² | - |
| 1777392055 | 20° C | 36% | 1020.6 hPa | 0 mm | - | 845 W/m² | - |
| 1777391750 | 20° C | 37% | 1020.6 hPa | 0 mm | - | 781 W/m² | - |
| 1777391448 | 20° C | 38% | 1020.6 hPa | 0 mm | - | 768 W/m² | - |
| 1777391144 | 20° C | 35% | 1020.6 hPa | 0 mm | - | 724 W/m² | - |
| 1777390839 | 19.44° C | 35% | 1020.6 hPa | 0 mm | - | 784 W/m² | - |
| 1777390537 | 20° C | 37% | 1020.6 hPa | 0 mm | - | 781 W/m² | - |
| 1777390233 | 19.44° C | 37% | 1020.6 hPa | 0 mm | - | 795 W/m² | - |
| 1777389930 | 19.44° C | 41% | 1020.6 hPa | 0 mm | - | 800 W/m² | - |
| 1777389627 | 19.44° C | 35% | 1020.9 hPa | 0 mm | - | 787 W/m² | - |
| 1777389323 | 19.44° C | 36% | 1020.9 hPa | 0 mm | - | 787 W/m² | - |
| 1777389021 | 19.44° C | 37% | 1020.6 hPa | 0 mm | - | 737 W/m² | - |
* Rain latest hour (hover to see other rain measurements)
** Current wind speed in m/s (hover to see current wind gust speed)